W0WC Weather Reports


Display with metric or nautical units.
time (UTC)temp
F
wind
direction
speed
MPH
gust
MPH
rain 1hr
in
rain 24hr
in
rain mn
in
humidity
%
barometer
mb
20260901190440 100 230 7.0 9.0 0.00 0.00 0.00 33 1016.9
20260901185937 98 31 0.0 0.0 0.00 0.00 0.00 35 1017.0
20260901185437 99 99 4.0 4.0 0.00 0.00 0.00 35 1017.4
20260901184937 99 177 2.0 2.0 0.00 0.00 0.00 35 1017.2
20260901184432 100 219 5.0 7.0 0.00 0.00 0.00 34 1017.2
20260901183927 100 358 2.0 3.0 0.00 0.00 0.00 35 1017.4
20260901183427 98 289 4.0 6.0 0.00 0.00 0.00 35 1017.4
20260901182923 98 9 0.0 1.0 0.00 0.00 0.00 36 1017.6
20260901182418 98 8 1.0 1.0 0.00 0.00 0.00 35 1017.6
20260901181913 99 343 2.0 3.0 0.00 0.00 0.00 35 1017.9
20260901181409 98 79 4.0 6.0 0.00 0.00 0.00 36 1017.6
20260901180907 98 354 2.0 2.0 0.00 0.00 0.00 36 1017.9
20260901180406 99 277 4.0 4.0 0.00 0.00 0.00 36 1017.8
20260901175905 98 329 1.0 2.0 0.00 0.00 0.00 37 1017.9
20260901175359 98 236 1.0 3.0 0.00 0.00 0.00 37 1018.1
20260901174855 98 280 1.0 2.0 0.00 0.00 0.00 38 1018.3
20260901174351 97 232 1.0 2.0 0.00 0.00 0.00 38 1018.5
20260901173846 97 260 7.0 10.0 0.00 0.00 0.00 38 1018.2
20260901173341 97 162 6.0 8.0 0.00 0.00 0.00 39 1018.4
20260901172837 97 308 2.0 3.0 0.00 0.00 0.00 40 1018.6
20260901172336 96 197 6.0 7.0 0.00 0.00 0.00 39 1018.5
20260901171835 96 150 3.0 6.0 0.00 0.00 0.00 41 1018.7
20260901171334 97 218 6.0 8.0 0.00 0.00 0.00 41 1018.8
20260901170833 97 5 1.0 2.0 0.00 0.00 0.00 41 1018.9
20260901170328 97 207 3.0 6.0 0.00 0.00 0.00 41 1018.8
20260901165827 97 338 2.0 2.0 0.00 0.00 0.00 40 1019.0
20260901165321 95 25 3.0 4.0 0.00 0.00 0.00 42 1019.0
20260901164818 96 273 3.0 4.0 0.00 0.00 0.00 43 1019.0
20260901164313 96 101 4.0 4.0 0.00 0.00 0.00 41 1019.1
20260901163809 95 256 4.0 6.0 0.00 0.00 0.00 43 1019.2
20260901163308 94 340 3.0 6.0 0.00 0.00 0.00 44 1019.1
20260901162803 95 174 7.0 9.0 0.00 0.00 0.00 43 1019.3
20260901162306 95 249 5.0 7.0 0.00 0.00 0.00 44 1019.0
20260901161803 94 30 2.0 2.0 0.00 0.00 0.00 45 1019.1
20260901161302 93 181 2.0 2.0 0.00 0.00 0.00 46 1019.2
20260901160758 92 221 3.0 3.0 0.00 0.00 0.00 47 1019.1
20260901160254 93 248 8.0 10.0 0.00 0.00 0.00 46 1019.1
20260901155753 92 330 2.0 2.0 0.00 0.00 0.00 46 1019.3
20260901155248 92 91 4.0 4.0 0.00 0.00 0.00 46 1019.2
20260901154743 92 213 6.0 8.0 0.00 0.00 0.00 47 1019.3
20260901154238 92 197 7.0 10.0 0.00 0.00 0.00 47 1019.2
20260901153733 92 161 5.0 7.0 0.00 0.00 0.00 47 1019.1
20260901153232 92 63 1.0 2.0 0.00 0.00 0.00 47 1019.0
20260901152732 91 130 4.0 7.0 0.00 0.00 0.00 47 1019.2
20260901152231 90 209 5.0 8.0 0.00 0.00 0.00 49 1019.2
20260901151727 90 217 1.0 1.0 0.00 0.00 0.00 50 1019.3
20260901151227 89 127 6.0 10.0 0.00 0.00 0.00 50 1019.3
20260901150726 90 198 3.0 4.0 0.00 0.00 0.00 49 1019.3
20260901150224 90 6 3.0 3.0 0.00 0.00 0.00 50 1019.3
20260901145722 90 145 9.0 13.0 0.00 0.00 0.00 49 1019.1
20260901145216 90 227 9.0 11.0 0.00 0.00 0.00 49 1019.4
20260901144712 89 254 3.0 4.0 0.00 0.00 0.00 50 1019.3
20260901144207 90 206 8.0 11.0 0.00 0.00 0.00 49 1019.2
20260901143702 89 201 2.0 3.0 0.00 0.00 0.00 50 1019.2
20260901143159 88 17 3.0 4.0 0.00 0.00 0.00 51 1019.3
20260901142655 87 182 9.0 11.0 0.00 0.00 0.00 51 1019.2
20260901142154 87 198 3.0 7.0 0.00 0.00 0.00 52 1019.2
20260901141649 87 210 8.0 10.0 0.00 0.00 0.00 52 1019.2
20260901141148 86 197 4.0 6.0 0.00 0.00 0.00 53 1019.2
20260901140647 86 331 1.0 1.0 0.00 0.00 0.00 54 1019.2
20260901140146 85 276 3.0 6.0 0.00 0.00 0.00 54 1019.4
20260901135641 85 183 4.0 4.0 0.00 0.00 0.00 55 1019.3
20260901135136 85 216 5.0 7.0 0.00 0.00 0.00 55 1019.4
20260901134632 85 19 1.0 2.0 0.00 0.00 0.00 55 1019.3
20260901134127 84 216 2.0 3.0 0.00 0.00 0.00 55 1019.2
20260901133626 84 128 7.0 8.0 0.00 0.00 0.00 55 1019.5
20260901133125 84 116 5.0 6.0 0.00 0.00 0.00 55 1019.4
20260901132620 84 85 3.0 3.0 0.00 0.00 0.00 55 1019.3
20260901132119 83 212 2.0 3.0 0.00 0.00 0.00 55 1019.2
20260901131619 83 219 2.0 4.0 0.00 0.00 0.00 56 1019.2
20260901131114 83 176 3.0 3.0 0.00 0.00 0.00 56 1019.0
20260901130609 82 349 2.0 3.0 0.00 0.00 0.00 56 1019.1
20260901130107 82 339 2.0 2.0 0.00 0.00 0.00 56 1019.0
20260901125607 82 195 3.0 3.0 0.00 0.00 0.00 56 1018.9
20260901125102 82 216 2.0 2.0 0.00 0.00 0.00 56 1019.0
20260901124601 82 187 3.0 4.0 0.00 0.00 0.00 56 1019.1
20260901124056 82 80 2.0 3.0 0.00 0.00 0.00 56 1018.9
20260901123551 82 204 4.0 6.0 0.00 0.00 0.00 56 1018.9
20260901123051 82 182 3.0 4.0 0.00 0.00 0.00 56 1018.8
20260901122549 82 180 2.0 3.0 0.00 0.00 0.00 56 1018.7
20260901122049 82 43 4.0 7.0 0.00 0.00 0.00 56 1018.6
20260901121549 82 303 4.0 6.0 0.00 0.00 0.00 55 1018.6
20260901121045 82 156 3.0 3.0 0.00 0.00 0.00 55 1018.7
20260901120544 82 335 3.0 4.0 0.00 0.00 0.00 55 1018.4
20260901120040 82 30 1.0 1.0 0.00 0.00 0.00 55 1018.5
20260901115535 82 48 1.0 1.0 0.00 0.00 0.00 55 1018.6
20260901115032 82 271 3.0 4.0 0.00 0.00 0.00 55 1018.4
20260901114528 82 192 3.0 3.0 0.00 0.00 0.00 55 1018.4
20260901114026 82 100 2.0 2.0 0.00 0.00 0.00 55 1018.4
20260901113525 82 200 3.0 3.0 0.00 0.00 0.00 55 1018.2
20260901113021 82 118 5.0 6.0 0.00 0.00 0.00 55 1018.2
20260901112516 82 183 3.0 4.0 0.00 0.00 0.00 54 1018.1
20260901112011 82 43 2.0 2.0 0.00 0.00 0.00 54 1018.1
20260901111509 82 135 2.0 2.0 0.00 0.00 0.00 54 1018.0
20260901111008 82 196 2.0 3.0 0.00 0.00 0.00 54 1017.8
20260901110504 82 48 1.0 2.0 0.00 0.00 0.00 54 1017.9
20260901105959 82 92 2.0 2.0 0.00 0.00 0.00 54 1017.8
20260901105455 82 224 2.0 3.0 0.00 0.00 0.00 54 1017.8
20260901104955 82 152 3.0 4.0 0.00 0.00 0.00 54 1017.9
20260901104451 82 86 3.0 4.0 0.00 0.00 0.00 54 1017.8
20260901103951 82 193 2.0 2.0 0.00 0.00 0.00 54 1017.6
20260901103446 82 177 3.0 3.0 0.00 0.00 0.00 55 1017.9
20260901102941 82 204 5.0 7.0 0.00 0.00 0.00 54 1017.6
20260901102436 82 121 4.0 4.0 0.00 0.00 0.00 55 1017.8
20260901101931 82 279 1.0 2.0 0.00 0.00 0.00 55 1017.6
20260901101426 82 105 4.0 7.0 0.00 0.00 0.00 55 1017.6
20260901100926 82 199 2.0 3.0 0.00 0.00 0.00 55 1017.6
20260901100420 82 86 2.0 2.0 0.00 0.00 0.00 55 1017.8
20260901095914 82 69 1.0 2.0 0.00 0.00 0.00 54 1017.6
20260901095413 82 265 2.0 2.0 0.00 0.00 0.00 54 1017.4
20260901094911 82 13 4.0 6.0 0.00 0.00 0.00 54 1017.4
20260901094406 82 136 5.0 9.0 0.00 0.00 0.00 54 1017.5
20260901093901 82 329 4.0 6.0 0.00 0.00 0.00 54 1017.5
20260901093400 82 8 1.0 2.0 0.00 0.00 0.00 55 1017.4
20260901092856 82 180 6.0 8.0 0.00 0.00 0.00 55 1017.3
20260901092356 82 115 4.0 4.0 0.00 0.00 0.00 55 1017.5
20260901091853 82 178 2.0 2.0 0.00 0.00 0.00 55 1017.2
20260901091352 81 161 5.0 6.0 0.00 0.00 0.00 55 1017.4
20260901090847 81 168 2.0 3.0 0.00 0.00 0.00 55 1017.2
20260901090342 81 40 2.0 2.0 0.00 0.00 0.00 55 1017.0
20260901085838 81 106 2.0 3.0 0.00 0.00 0.00 56 1017.1
20260901085333 81 216 3.0 4.0 0.00 0.00 0.00 56 1017.3
20260901084829 81 84 1.0 2.0 0.00 0.00 0.00 56 1017.3
20260901084325 81 37 1.0 2.0 0.00 0.00 0.00 56 1017.2
20260901083821 81 145 3.0 3.0 0.00 0.00 0.00 55 1017.1
20260901083320 81 49 0.0 1.0 0.00 0.00 0.00 55 1017.1
20260901082819 81 56 1.0 2.0 0.00 0.00 0.00 55 1017.1
20260901082314 81 38 2.0 2.0 0.00 0.00 0.00 55 1016.9
20260901081810 81 164 3.0 4.0 0.00 0.00 0.00 54 1017.1
20260901081309 81 72 4.0 6.0 0.00 0.00 0.00 54 1016.9
20260901080804 81 71 2.0 3.0 0.00 0.00 0.00 54 1017.0
20260901080305 81 196 5.0 6.0 0.00 0.00 0.00 54 1017.1
20260901075758 81 122 5.0 7.0 0.00 0.00 0.00 54 1016.9
20260901075254 81 138 3.0 4.0 0.00 0.00 0.00 54 1017.0
20260901074753 81 88 3.0 3.0 0.00 0.00 0.00 54 1016.8
20260901074248 81 39 2.0 3.0 0.00 0.00 0.00 53 1016.9
20260901073745 81 41 2.0 3.0 0.00 0.00 0.00 53 1017.0
20260901073240 82 41 2.0 3.0 0.00 0.00 0.00 53 1017.1
20260901072735 82 123 2.0 3.0 0.00 0.00 0.00 53 1017.0
20260901072230 82 84 4.0 6.0 0.00 0.00 0.00 52 1016.9
20260901071730 82 94 3.0 3.0 0.00 0.00 0.00 52 1016.9
20260901071230 82 73 1.0 1.0 0.00 0.00 0.00 52 1017.1
20260901070729 82 76 2.0 3.0 0.00 0.00 0.00 52 1017.2
20260901070225 82 58 2.0 2.0 0.00 0.00 0.00 52 1017.1
20260901065724 82 151 2.0 2.0 0.00 0.00 0.00 51 1017.1
20260901065219 82 221 3.0 3.0 0.00 0.00 0.00 51 1017.0
20260901064715 83 77 1.0 2.0 0.00 0.00 0.00 50 1016.9
20260901064212 83 187 4.0 4.0 0.00 0.00 0.00 50 1017.1
20260901063708 83 81 2.0 2.0 0.00 0.00 0.00 50 1017.0
20260901063205 83 150 3.0 4.0 0.00 0.00 0.00 50 1017.1
20260901062700 84 78 2.0 3.0 0.00 0.00 0.00 49 1017.3
20260901062155 84 127 4.0 4.0 0.00 0.00 0.00 48 1017.3
20260901061652 84 53 2.0 2.0 0.00 0.00 0.00 48 1017.2
20260901061151 84 174 2.0 3.0 0.00 0.00 0.00 48 1017.3
20260901060646 85 78 2.0 3.0 0.00 0.00 0.00 47 1017.2
20260901060142 85 234 3.0 3.0 0.00 0.00 0.00 47 1017.1
20260901055637 85 113 2.0 4.0 0.00 0.00 0.00 47 1017.1
20260901055134 85 53 2.0 2.0 0.00 0.00 0.00 47 1017.0
20260901054630 85 176 2.0 3.0 0.00 0.00 0.00 47 1017.2
20260901054126 85 83 2.0 3.0 0.00 0.00 0.00 46 1017.1
20260901053622 85 102 4.0 4.0 0.00 0.00 0.00 46 1017.0
20260901053118 85 146 2.0 3.0 0.00 0.00 0.00 46 1017.1
20260901052618 85 54 1.0 1.0 0.00 0.00 0.00 46 1016.9
20260901052114 85 141 1.0 2.0 0.00 0.00 0.00 46 1017.0
20260901051613 85 68 1.0 1.0 0.00 0.00 0.00 45 1017.1
20260901051112 86 25 0.0 1.0 0.00 0.00 0.00 45 1016.9
20260901050607 86 112 3.0 4.0 0.00 0.00 0.00 45 1017.0
20260901045558 86 90 2.0 3.0 0.00 0.00 0.00 44 1016.9
20260901045057 86 155 2.0 3.0 0.00 0.00 0.00 45 1017.0
20260901044554 86 163 4.0 4.0 0.00 0.00 0.00 45 1016.9
20260901044049 86 63 3.0 3.0 0.00 0.00 0.00 45 1017.0
20260901043545 86 106 2.0 2.0 0.00 0.00 0.00 45 1016.8
20260901043040 86 75 2.0 2.0 0.00 0.00 0.00 45 1016.9
20260901042539 87 216 4.0 4.0 0.00 0.00 0.00 44 1016.8
20260901042035 87 160 3.0 4.0 0.00 0.00 0.00 44 1016.7
20260901041530 87 71 3.0 4.0 0.00 0.00 0.00 44 1016.7
20260901041025 86 83 4.0 6.0 0.00 0.00 0.00 44 1016.9
20260901040519 86 90 3.0 3.0 0.00 0.00 0.00 44 1016.8
20260901040019 86 168 3.0 3.0 0.00 0.00 0.00 45 1016.9
20260901035517 85 170 2.0 2.0 0.00 0.00 0.00 46 1016.8
20260901035016 85 47 2.0 2.0 0.00 0.00 0.00 47 1016.8
20260901034516 85 28 1.0 2.0 0.00 0.00 0.00 47 1016.5
20260901034010 84 76 2.0 2.0 0.00 0.00 0.00 48 1016.6
20260901033509 83 32 0.0 1.0 0.00 0.00 0.00 51 1016.7
20260901033010 83 30 0.0 1.0 0.00 0.00 0.00 51 1016.7
20260901032503 83 25 0.0 0.0 0.00 0.00 0.00 51 1016.5
20260901031958 83 21 0.0 0.0 0.00 0.00 0.00 51 1016.4
20260901031454 83 13 0.0 0.0 0.00 0.00 0.00 51 1016.4
20260901030954 83 14 0.0 0.0 0.00 0.00 0.00 50 1016.3
20260901030449 84 13 0.0 0.0 0.00 0.00 0.00 49 1016.3
20260901025948 84 15 0.0 0.0 0.00 0.00 0.00 49 1016.6
20260901025443 84 15 0.0 0.0 0.00 0.00 0.00 48 1016.2
20260901024942 84 14 0.0 0.0 0.00 0.00 0.00 48 1016.2
20260901024437 85 14 0.0 0.0 0.00 0.00 0.00 48 1016.5
20260901023936 85 15 0.0 0.0 0.00 0.00 0.00 48 1016.3
20260901023431 86 13 0.0 0.0 0.00 0.00 0.00 46 1016.1
20260901022926 86 3 0.0 0.0 0.00 0.00 0.00 46 1016.3
20260901022422 86 8 0.0 0.0 0.00 0.00 0.00 45 1016.2
20260901021916 86 12 0.0 0.0 0.00 0.00 0.00 44 1016.0
20260901021412 87 16 0.0 0.0 0.00 0.00 0.00 44 1016.0
20260901020907 87 14 0.0 0.0 0.00 0.00 0.00 44 1015.8
20260901020403 87 10 0.0 0.0 0.00 0.00 0.00 43 1015.8
20260901015901 87 10 0.0 0.0 0.00 0.00 0.00 43 1015.9
20260901015358 88 8 0.0 0.0 0.00 0.00 0.00 43 1015.8
20260901014857 88 12 0.0 0.0 0.00 0.00 0.00 42 1015.7
20260901014354 88 12 0.0 0.0 0.00 0.00 0.00 42 1015.6
20260901013849 88 11 0.0 0.0 0.00 0.00 0.00 42 1015.6
20260901013344 89 12 0.0 0.0 0.00 0.00 0.00 41 1015.5
20260901012840 89 11 0.0 0.0 0.00 0.00 0.00 40 1015.4
20260901012335 90 13 0.0 0.0 0.00 0.00 0.00 40 1015.4
20260901011831 90 14 0.0 0.0 0.00 0.00 0.00 39 1015.4
20260901011327 91 13 0.0 0.0 0.00 0.00 0.00 38 1015.2
20260901010825 92 13 0.0 0.0 0.00 0.00 0.00 38 1015.5
20260901010320 92 14 0.0 0.0 0.00 0.00 0.00 37 1015.2
20260901005818 93 10 0.0 0.0 0.00 0.00 0.00 36 1015.3
20260901005314 93 6 0.0 0.0 0.00 0.00 0.00 36 1015.1
20260901004814 94 10 0.0 0.0 0.00 0.00 0.00 35 1015.2
20260901004308 95 9 0.0 0.0 0.00 0.00 0.00 34 1015.0
20260901003803 95 7 0.0 0.0 0.00 0.00 0.00 33 1015.1
20260901003258 96 179 2.0 3.0 0.00 0.00 0.00 32 1015.3
20260901002756 96 10 0.0 0.0 0.00 0.00 0.00 32 1015.0
20260901002252 97 4 1.0 1.0 0.00 0.00 0.00 32 1015.2
20260901001747 97 7 2.0 2.0 0.00 0.00 0.00 31 1015.2
20260901001242 97 26 1.0 2.0 0.00 0.00 0.00 31 1015.0
20260901000737 98 210 3.0 4.0 0.00 0.00 0.00 31 1015.1
20260901000233 98 295 2.0 3.0 0.00 0.00 0.00 30 1015.0
20260831235731 98 27 1.0 1.0 0.00 0.00 0.00 30 1015.0
20260831235227 99 214 2.0 6.0 0.00 0.00 0.00 30 1015.1
20260831234728 99 225 3.0 3.0 0.00 0.00 0.00 30 1014.9
20260831234227 99 227 4.0 6.0 0.00 0.00 0.00 29 1015.1
20260831233722 100 200 6.0 7.0 0.00 0.00 0.00 29 1015.1
20260831233218 99 222 7.0 9.0 0.00 0.00 0.00 29 1015.0
20260831232718 100 241 3.0 3.0 0.00 0.00 0.00 29 1015.0
20260831232214 101 95 1.0 2.0 0.00 0.00 0.00 28 1015.0
20260831231705 101 22 2.0 2.0 0.00 0.00 0.00 28 1015.0
20260831231201 101 312 2.0 3.0 0.00 0.00 0.00 28 1015.0
20260831230700 101 349 2.0 3.0 0.00 0.00 0.00 28 1015.0
20260831230156 101 270 2.0 2.0 0.00 0.00 0.00 28 1015.0
20260831225655 101 340 2.0 3.0 0.00 0.00 0.00 28 1015.0
20260831225150 101 216 9.0 10.0 0.00 0.00 0.00 28 1015.0
20260831224645 102 268 1.0 2.0 0.00 0.00 0.00 28 1015.3
20260831224146 100 251 2.0 2.0 0.00 0.00 0.00 29 1015.1
20260831223641 101 0 2.0 3.0 0.00 0.00 0.00 28 1015.0
20260831223138 102 176 7.0 9.0 0.00 0.00 0.00 28 1015.1
20260831222633 102 197 4.0 4.0 0.00 0.00 0.00 28 1015.2
20260831222128 102 107 2.0 2.0 0.00 0.00 0.00 28 1015.1
20260831221624 101 17 2.0 3.0 0.00 0.00 0.00 29 1015.2
20260831221119 101 235 7.0 10.0 0.00 0.00 0.00 29 1015.4
20260831220614 102 193 3.0 4.0 0.00 0.00 0.00 28 1015.1
20260831220109 102 356 1.0 1.0 0.00 0.00 0.00 28 1015.2
20260831215605 102 95 3.0 4.0 0.00 0.00 0.00 28 1015.2
20260831215055 101 230 4.0 6.0 0.00 0.00 0.00 29 1015.3
20260831214552 102 188 3.0 3.0 0.00 0.00 0.00 29 1015.5
20260831214048 102 82 5.0 6.0 0.00 0.00 0.00 29 1015.6
20260831213544 102 327 3.0 6.0 0.00 0.00 0.00 28 1015.6
20260831213039 101 12 2.0 3.0 0.00 0.00 0.00 29 1015.6
20260831212535 100 49 1.0 2.0 0.00 0.00 0.00 30 1015.4
20260831212031 101 152 4.0 4.0 0.00 0.00 0.00 29 1015.6
20260831211525 101 210 3.0 3.0 0.00 0.00 0.00 29 1015.6
20260831211024 102 281 9.0 10.0 0.00 0.00 0.00 28 1015.8
20260831210520 102 314 2.0 3.0 0.00 0.00 0.00 29 1015.7
20260831210016 102 39 3.0 7.0 0.00 0.00 0.00 29 1015.7
20260831205511 103 27 2.0 2.0 0.00 0.00 0.00 29 1015.7
20260831205007 100 344 1.0 2.0 0.00 0.00 0.00 30 1015.8
20260831204507 101 53 4.0 6.0 0.00 0.00 0.00 30 1015.7
20260831204005 100 352 2.0 3.0 0.00 0.00 0.00 30 1015.9
20260831203505 100 265 4.0 6.0 0.00 0.00 0.00 30 1016.0
20260831203003 101 200 8.0 10.0 0.00 0.00 0.00 29 1016.1
20260831202458 100 55 2.0 2.0 0.00 0.00 0.00 30 1016.1
20260831201957 101 215 4.0 4.0 0.00 0.00 0.00 29 1016.3
20260831201456 101 65 4.0 4.0 0.00 0.00 0.00 29 1016.2
20260831200953 101 228 8.0 10.0 0.00 0.00 0.00 28 1016.4
20260831200448 100 332 3.0 3.0 0.00 0.00 0.00 29 1016.4
20260831195948 100 172 10.0 15.0 0.00 0.00 0.00 28 1016.5
20260831195443 101 109 3.0 3.0 0.00 0.00 0.00 28 1016.7
20260831194938 102 181 9.0 11.0 0.00 0.00 0.00 27 1016.6
20260831194434 101 51 1.0 1.0 0.00 0.00 0.00 27 1016.6
20260831193933 100 177 6.0 8.0 0.00 0.00 0.00 28 1016.6
20260831193428 100 282 4.0 6.0 0.00 0.00 0.00 29 1016.6
20260831192923 100 258 7.0 10.0 0.00 0.00 0.00 28 1016.7
20260831192419 100 218 6.0 8.0 0.00 0.00 0.00 29 1016.6
20260831191914 100 220 5.0 9.0 0.00 0.00 0.00 29 1016.9
20260831191410 100 180 6.0 10.0 0.00 0.00 0.00 29 1017.1
20260831190906 99 143 6.0 9.0 0.00 0.00 0.00 30 1016.8